Temperature
16 16 16 16 15 15 15 15 14 14 14 14 13 13 13 13 13 12 12 12 12 12 11 11 11 11 11 11 11 11 11 11 11 10 10 10 10 10 10 10 10 9 10
16 16 15 15 15 15 15 15 14 14 14 14 13 13 13 12 12 12 12 12 11 11 11 11 11 11 11 11 11 10 10 10 10 10 10 10 10 10 10 10 9 9 9
16 15 15 15 15 15 15 14 14 14 14 13 13 13 13 12 12 12 12 12 11 11 11 11 11 11 10 10 10 10 10 10 10 10 10 10 9 10 9 9 9 9 9
15 15 15 15 15 14 14 14 14 14 13 13 13 12 12 12 12 12 12 11 11 11 11 11 10 10 10 10 10 10 10 10 9 9 9 9 9 9 9 9 9 9 9
15 15 14 14 14 14 14 14 14 13 13 13 12 12 12 12 12 11 11 11 11 11 11 10 10 10 10 10 10 9 9 9 9 9 9 9 9 9 9 8 8 8 8
15 14 14 14 14 14 14 13 13 13 13 12 12 12 12 12 12 12 11 11 11 11 10 10 10 10 10 10 10 10 9 9 9 9 9 8 8 8 8 8 8 8 8
14 14 14 14 14 13 13 13 13 12 12 12 12 12 12 12 12 11 11 11 10 10 10 10 10 10 10 10 9 9 9 9 9 8 8 8 8 8 8 8 8 8 7
14 13 13 13 13 13 13 13 13 12 12 12 12 12 11 11 11 11 11 10 10 10 10 9 9 9 9 9 9 8 8 9 9 8 8 8 8 8 8 8 7 7 7
13 13 13 13 13 13 12 12 12 12 11 11 11 11 11 11 11 11 11 10 10 9 9 9 9 9 9 9 8 8 8 8 8 8 8 8 8 8 8 7 7 7 7
12 12 12 12 12 12 12 12 11 11 11 11 11 11 10 10 10 10 10 10 9 9 9 9 9 9 9 8 8 8 8 8 8 8 8 8 7 7 7 7 7 7 6
12 12 12 12 12 12 11 11 11 11 10 10 10 10 10 10 10 10 10 9 9 9 9 8 8 9 8 8 8 8 7 7 7 7 7 7 7 7 7 7 6 6 6
12 12 12 11 11 11 11 10 10 10 10 10 10 10 9 9 9 9 9 9 9 8 8 8 8 8 8 8 8 8 7 7 7 7 6 6 6 6 6 6 6 6 6
11 11 11 11 10 10 10 10 10 10 9 9 9 9 9 9 9 9 9 8 8 8 8 8 8 7 7 7 7 7 7 7 6 6 6 6 6 6 6 6 6 6 6
11 10 10 10 10 9 9 9 9 9 9 9 9 8 8 8 8 8 8 8 8 8 7 7 7 7 7 7 6 6 6 6 6 6 6 6 6 6 6 6 5 5 5
10 10 9 9 9 9 9 9 9 9 9 9 8 8 8 8 8 8 8 7 7 7 7 7 6 6 6 6 6 6 6 6 6 5 5 5 5 5 5 5 5 5 5
9 9 9 9 9 8 8 8 8 8 8 8 8 8 8 7 7 7 7 7 7 7 6 6 6 6 6 5 5 5 5 5 5 5 5 5 5 5 5 5 5 4 4
9 9 9 8 8 8 8 8 7 7 7 7 7 7 7 7 7 7 6 6 6 6 5 5 5 5 5 5 5 5 5 5 5 4 4 4 4 4 4 4 4 4 4
8 8 8 8 8 7 7 7 7 7 6 6 6 6 6 6 6 6 6 5 5 5 5 5 5 4 4 4 4 4 4 4 4 4 4 4 4 4 4 4 4 4 3
8 8 8 7 7 7 7 6 6 6 6 6 5 5 5 5 5 5 5 5 4 4 4 4 4 4 4 4 4 4 3 3 3 3 3 3 3 3 3 3 3 3 3
8 8 7 7 7 6 6 6 6 5 5 5 5 5 5 4 4 4 4 4 4 4 3 3 3 3 3 3 3 3 3 3 3 3 3 3 3 3 3 3 3 3 3
7 7 7 6 6 6 5 5 5 5 4 4 4 4 4 4 4 3 3 3 3 3 3 3 3 3 2 2 2 2 2 2 2 2 2 2 2 2 2 2 2 2 2
6 6 6 6 5 5 5 4 4 4 4 3 3 3 3 3 3 3 3 2 2 2 2 2 2 2 2 2 2 2 2 1 1 1 1 1 1 1 1 1 1 1 1
6 5 5 5 5 4 4 4 4 3 3 3 3 3 2 2 2 2 2 2 2 2 2 2 1 1 1 1 1 1 1 1 1 1 1 1 1 1 1 1 1 1 1
5 5 5 4 4 4 4 3 3 3 2 2 2 2 2 2 1 1 1 1 1 1 1 1 1 1 1 1 1 1 1 1 0 1 0 0 0 0 0 0 0 0 0
4 4 4 4 4 3 3 3 3 2 2 2 2 1 1 1 1 1 1 1 1 1 1 1 1 1 1 0 0 0 0 0 0 0 -0 -0 -0 -0 -0 -0 -0 -0 -0
4 4 3 3 3 3 3 2 2 2 2 1 1 1 1 1 0 0 0 0 0 0 0 0 0 -0 -0 -0 -0 -0 -0 -0 -0 -0 -0 -1 -1 -1 -1 -1 -1 -1 -1
Wind_Speed
9 9 9 9 8 8 8 8 7 7 7 7 7 7 7 7 7 7 7 6 6 6 6 6 5 4 4 4 3 4 4 4 4 3 2 1 1 2 1 1 1 1 1
8 9 9 9 8 8 8 8 8 8 7 7 7 7 7 7 7 7 7 7 7 7 6 6 6 4 5 4 4 4 4 4 4 4 3 2 2 2 1 1 1 1 1
7 8 9 8 9 9 8 8 8 8 7 7 7 7 7 7 8 7 7 7 8 7 7 6 6 5 5 4 4 5 4 4 4 4 3 2 2 1 2 2 2 2 2
7 8 8 9 9 8 8 8 8 8 8 7 7 7 7 7 8 8 8 8 7 7 6 6 5 5 5 5 4 5 4 4 4 4 4 3 2 2 2 2 2 2 2
7 7 8 8 8 8 8 8 8 7 8 7 7 7 7 7 6 7 8 8 7 7 6 6 5 4 3 3 3 4 4 4 4 4 4 3 3 2 2 3 3 3 2
6 7 6 7 7 7 7 7 7 7 7 7 7 6 6 5 4 5 7 7 7 7 7 6 5 5 4 3 3 3 4 5 5 5 4 4 4 3 3 3 3 3 3
5 5 6 6 6 7 7 7 7 8 8 8 8 7 7 6 6 7 7 7 7 7 6 6 5 4 5 5 5 5 4 4 5 6 6 5 5 4 4 4 4 5 3
4 4 5 6 6 6 6 7 7 7 7 7 8 8 7 6 7 8 8 9 7 7 6 6 5 5 4 5 5 5 4 4 5 5 6 5 4 4 5 5 5 5 3
3 4 4 5 6 6 7 7 7 6 7 7 7 7 7 7 8 8 8 6 6 7 6 6 6 5 4 5 6 5 5 4 2 3 4 3 2 2 4 4 4 4 4
3 4 4 4 5 7 7 7 6 6 7 6 6 7 7 7 7 9 8 6 6 6 6 6 6 6 5 6 7 6 6 5 4 4 4 4 4 4 4 5 5 4 4
3 3 3 4 5 5 5 5 5 5 6 6 6 6 6 6 7 9 9 6 6 6 5 5 5 6 6 7 7 6 6 5 4 4 4 4 4 4 4 5 4 4 5
2 3 3 3 3 3 4 4 5 5 5 5 5 5 4 5 6 8 9 8 6 6 5 4 4 7 7 7 7 5 4 4 4 4 4 4 3 3 3 4 5 5 5
2 2 3 3 3 3 3 4 4 4 4 4 4 4 4 3 4 6 8 8 7 6 4 3 3 5 7 6 6 7 6 5 4 4 5 4 4 4 3 3 4 4 5
2 2 2 2 2 3 3 3 3 3 3 3 4 4 4 3 3 3 4 5 6 5 4 4 5 5 4 3 4 5 5 4 4 5 4 4 3 3 3 3 3 4 4
2 2 2 2 2 2 3 2 3 3 3 3 4 4 4 4 3 2 3 3 3 3 3 3 3 3 4 4 4 3 3 4 4 5 4 4 4 4 3 3 4 4 4
2 2 2 2 2 2 2 1 1 1 1 1 1 2 2 2 3 4 3 3 3 4 4 4 4 4 4 4 4 4 4 4 4 4 4 5 4 4 4 4 4 4 5
3 2 2 2 2 2 2 2 2 1 2 3 2 2 1 2 3 4 5 5 4 5 3 3 3 4 4 4 4 4 3 3 3 4 5 5 5 5 5 5 5 5 5
2 2 2 2 2 2 2 2 2 2 2 1 2 3 3 3 4 4 5 5 3 4 3 3 3 3 3 3 3 3 3 3 3 4 4 4 4 5 5 5 5 6 6
2 1 1 1 1 2 2 2 2 2 2 1 1 2 3 3 4 4 5 3 3 3 3 3 3 3 3 3 3 3 3 3 3 3 3 4 4 4 5 5 5 6 6
1 2 1 1 1 1 2 2 2 2 2 1 1 1 2 2 2 3 3 3 3 3 3 3 3 3 3 3 3 3 3 3 3 3 4 4 4 4 5 5 5 5 5
1 2 2 2 1 1 1 1 2 2 2 2 1 1 2 2 2 2 2 2 2 2 2 2 3 3 3 3 3 4 4 4 4 4 4 4 4 4 4 4 5 5 5
1 1 1 1 1 1 1 2 2 2 2 2 1 2 3 2 2 2 1 1 1 2 2 2 2 2 2 3 3 4 4 4 4 4 4 4 4 4 5 4 4 4 4
1 1 2 1 1 2 2 1 1 1 1 1 2 2 2 2 2 2 1 1 2 2 2 2 2 2 3 3 3 3 4 4 4 5 5 4 4 4 4 5 5 5 5
1 1 2 2 2 2 2 1 1 1 2 2 2 2 2 2 2 2 2 2 2 2 2 2 3 3 3 3 3 3 4 4 5 5 5 5 5 5 5 5 5 6 6
1 1 1 2 2 2 2 2 2 2 2 2 2 2 2 2 2 2 2 2 3 3 3 3 3 4 4 5 4 4 4 4 5 5 5 5 6 6 6 6 6 6 6
1 1 1 1 1 2 2 2 2 2 2 2 2 2 2 2 2 3 3 3 3 3 3 4 4 5 5 5 5 5 5 5 5 6 5 5 6 6 6 6 7 6 6
Wind_Direction
205 206 205 206 206 207 209 210 208 207 206 212 217 215 215 216 216 214 220 219 226 228 228 235 236 241 239 236 237 241 245 251 259 262 248 247 262 270 261 273 283 277 95
205 206 207 207 205 207 211 211 208 209 210 212 215 218 218 219 220 219 219 222 227 230 229 233 236 230 239 242 239 238 239 242 249 253 243 245 263 267 270 272 283 292 290
203 205 204 205 206 209 212 213 211 211 212 212 212 218 220 220 220 221 223 225 228 229 228 228 232 232 234 235 237 240 241 239 242 246 246 244 250 260 267 271 270 279 268
203 205 207 207 208 209 210 211 212 211 211 212 213 218 221 221 222 221 223 226 226 226 226 226 226 229 235 236 235 239 238 235 236 239 236 236 240 249 253 260 264 269 261
203 207 211 209 207 210 211 210 209 210 213 212 213 216 218 219 222 223 219 221 222 222 222 221 220 227 255 252 246 240 235 233 232 234 237 239 238 236 249 258 266 268 249
207 210 208 209 206 208 211 210 209 210 212 212 215 214 215 217 200 214 228 222 223 222 218 219 214 212 211 216 239 257 256 242 236 232 236 241 244 242 247 251 258 257 262
216 214 206 205 206 209 210 210 210 210 209 210 213 212 217 211 187 197 218 225 225 222 218 219 218 213 211 220 212 216 230 247 260 250 243 246 248 240 238 244 252 258 270
220 220 213 208 204 206 208 210 210 210 208 212 211 211 214 208 188 196 208 219 220 217 217 222 224 220 217 228 218 219 228 228 239 251 256 259 261 255 241 245 253 255 251
226 228 222 212 205 203 208 212 212 212 213 216 214 213 213 209 191 195 200 210 216 216 216 220 226 225 195 221 225 224 227 226 209 244 294 302 315 290 260 240 240 241 248
238 233 229 221 211 210 214 214 213 215 218 218 218 218 216 216 187 189 200 208 215 218 218 218 218 228 196 199 221 227 233 234 225 216 225 228 233 221 236 238 239 244 255
249 238 227 222 220 217 213 212 212 213 218 219 219 220 218 216 193 188 200 215 218 222 221 221 215 197 200 205 225 233 239 246 231 232 235 234 233 229 230 239 245 247 253
248 242 229 221 216 210 205 206 206 206 211 215 218 221 221 211 202 195 202 217 230 224 226 225 212 190 198 206 219 227 230 235 231 231 236 238 237 237 238 240 244 246 256
228 235 237 222 210 207 208 205 207 207 212 214 215 219 219 213 199 191 199 208 217 225 227 210 200 191 193 205 213 217 221 225 226 233 236 237 239 246 240 236 244 249 253
216 218 231 226 210 205 209 207 207 207 212 218 222 221 219 210 203 198 207 207 204 209 208 187 181 182 198 204 204 214 224 225 228 235 240 240 240 239 237 238 241 243 243
214 205 220 223 204 209 214 217 220 216 214 224 229 226 221 220 207 191 203 211 211 204 190 191 198 201 208 216 221 223 222 221 227 234 238 238 235 237 242 246 249 248 246
210 208 211 217 215 205 208 208 126 204 125 211 249 237 228 210 159 163 168 160 158 162 180 197 205 210 215 219 220 225 229 229 231 235 239 238 238 239 242 244 245 245 249
214 209 210 223 218 209 211 210 200 156 155 170 167 175 192 155 157 159 154 152 161 169 192 209 216 219 220 221 224 227 233 237 240 241 243 243 241 240 241 241 242 246 250
215 200 206 218 220 210 213 217 212 202 195 181 152 140 144 147 146 150 152 151 171 188 213 218 223 225 229 229 230 234 236 237 237 243 247 246 242 243 243 243 245 248 251
214 202 192 198 203 192 190 200 201 195 187 160 136 129 130 148 152 151 158 180 194 207 221 225 227 231 234 237 237 241 242 243 245 246 252 255 253 250 251 252 250 249 250
204 139 158 164 159 161 170 178 175 162 149 139 140 125 141 152 160 165 180 207 217 222 226 229 230 232 236 239 240 240 243 246 249 251 254 254 256 256 255 260 262 257 251
191 156 152 153 148 152 164 164 165 160 156 151 145 118 144 174 175 177 185 202 225 239 245 244 243 241 244 247 244 242 244 251 250 251 253 254 255 256 259 261 264 268 268
193 178 169 158 149 149 155 163 163 166 168 165 153 135 151 174 174 184 193 209 240 261 262 256 257 258 255 253 252 250 249 252 255 255 257 259 257 257 258 257 259 264 268
188 168 156 153 150 136 147 153 157 165 168 161 159 154 162 178 187 198 211 220 228 246 264 267 261 271 275 267 259 253 253 256 258 257 256 255 253 252 253 256 258 263 265
172 166 163 161 165 170 166 163 172 179 182 181 184 185 186 197 206 213 224 229 234 242 252 263 264 265 274 280 274 267 270 276 274 262 255 254 253 254 252 254 256 257 258
172 167 174 181 182 184 182 183 192 201 206 205 205 206 208 214 221 225 233 239 249 253 256 264 267 268 269 269 270 270 272 272 274 273 260 251 251 251 254 255 255 257 256
169 173 183 188 190 196 201 206 209 213 218 220 223 223 221 226 236 242 242 244 253 260 266 269 268 271 273 270 271 275 265 255 257 264 260 251 251 252 254 257 258 256 257
Height
1510 1512 1513 1515 1517 1518 1519 1520 1521 1522 1523 1524 1524 1525 1526 1527 1527 1528 1528 1528 1528 1528 1528 1528 1528 1528 1528 1528 1528 1528 1528 1528 1528 1527 1526 1525 1525 1524 1523 1522 1522 1521 1520
1506 1508 1510 1511 1513 1514 1515 1517 1518 1519 1520 1520 1521 1522 1523 1523 1524 1524 1525 1525 1525 1525 1525 1525 1525 1525 1525 1525 1525 1525 1525 1525 1525 1524 1524 1523 1522 1522 1521 1520 1520 1519 1518
1503 1504 1506 1507 1509 1510 1511 1513 1514 1515 1516 1517 1517 1518 1519 1520 1520 1521 1521 1521 1522 1522 1522 1522 1522 1522 1522 1522 1522 1522 1522 1522 1522 1522 1521 1520 1520 1519 1519 1518 1518 1517 1516
1499 1501 1502 1503 1504 1506 1507 1509 1510 1511 1511 1512 1513 1514 1515 1516 1517 1517 1517 1518 1518 1518 1519 1519 1519 1519 1519 1519 1519 1519 1519 1519 1519 1519 1518 1518 1517 1516 1516 1516 1515 1515 1514
1496 1497 1498 1500 1501 1502 1503 1504 1505 1506 1507 1508 1509 1510 1511 1511 1512 1513 1514 1514 1515 1515 1515 1515 1515 1515 1515 1515 1516 1516 1516 1516 1515 1515 1515 1515 1515 1514 1513 1513 1513 1512 1512
1493 1493 1494 1496 1497 1498 1499 1500 1501 1502 1503 1504 1505 1505 1506 1507 1507 1509 1510 1511 1511 1511 1511 1512 1512 1512 1511 1511 1512 1512 1512 1512 1512 1512 1512 1512 1512 1511 1511 1510 1510 1510 1509
1489 1490 1491 1492 1492 1493 1494 1496 1496 1497 1498 1499 1500 1501 1502 1502 1503 1504 1505 1507 1507 1507 1508 1508 1508 1508 1508 1508 1508 1508 1508 1508 1509 1509 1509 1509 1509 1508 1508 1507 1507 1507 1506
1485 1486 1487 1488 1488 1489 1490 1491 1492 1493 1494 1495 1496 1496 1497 1498 1499 1500 1501 1502 1503 1503 1504 1504 1505 1505 1504 1505 1505 1505 1505 1504 1505 1505 1506 1505 1505 1505 1504 1504 1504 1504 1503
1482 1482 1483 1484 1484 1485 1486 1487 1488 1489 1489 1490 1491 1492 1493 1493 1494 1495 1496 1497 1498 1499 1499 1500 1500 1501 1501 1501 1502 1502 1502 1501 1501 1501 1501 1501 1501 1501 1501 1501 1501 1501 1501
1479 1479 1479 1480 1480 1481 1482 1483 1483 1484 1485 1486 1487 1487 1488 1489 1490 1491 1492 1493 1493 1494 1495 1495 1495 1496 1496 1497 1498 1498 1498 1498 1498 1498 1498 1497 1497 1497 1497 1497 1497 1498 1497
1476 1475 1475 1476 1477 1477 1478 1479 1479 1480 1481 1482 1483 1483 1484 1485 1486 1486 1487 1488 1489 1490 1490 1490 1491 1491 1492 1492 1493 1494 1494 1495 1494 1494 1494 1494 1494 1494 1493 1493 1493 1494 1494
1472 1472 1472 1472 1473 1473 1474 1475 1476 1476 1477 1478 1478 1479 1480 1480 1481 1482 1483 1484 1484 1485 1486 1486 1486 1487 1487 1488 1489 1490 1491 1491 1491 1491 1491 1490 1490 1490 1490 1489 1489 1489 1489
1468 1468 1469 1469 1469 1469 1470 1471 1472 1472 1473 1473 1474 1475 1475 1476 1477 1477 1478 1479 1480 1481 1481 1482 1482 1483 1483 1484 1485 1486 1486 1487 1487 1487 1487 1487 1486 1486 1486 1486 1485 1485 1485
1465 1465 1466 1466 1466 1466 1467 1467 1468 1468 1469 1469 1470 1470 1471 1472 1472 1473 1473 1474 1475 1476 1476 1477 1478 1479 1479 1480 1481 1481 1482 1482 1483 1483 1483 1483 1483 1482 1482 1482 1482 1481 1481
1463 1463 1463 1463 1463 1463 1464 1464 1464 1465 1465 1466 1466 1466 1467 1467 1468 1468 1469 1470 1471 1471 1472 1473 1474 1475 1475 1476 1477 1477 1477 1478 1479 1479 1479 1479 1479 1478 1478 1478 1477 1477 1477
1460 1460 1460 1460 1460 1460 1460 1461 1461 1461 1461 1462 1462 1462 1462 1463 1464 1464 1466 1466 1467 1468 1469 1469 1470 1471 1472 1472 1473 1473 1473 1474 1474 1474 1475 1475 1475 1475 1474 1474 1473 1473 1473
1457 1457 1457 1457 1457 1457 1457 1457 1457 1458 1458 1458 1458 1458 1459 1459 1460 1461 1462 1463 1464 1464 1465 1466 1466 1467 1467 1468 1469 1469 1469 1470 1470 1470 1470 1470 1470 1470 1470 1469 1469 1469 1468
1455 1454 1454 1454 1454 1454 1454 1454 1455 1455 1455 1455 1455 1455 1455 1456 1457 1458 1459 1460 1460 1461 1461 1462 1462 1463 1463 1464 1465 1465 1465 1465 1465 1466 1465 1465 1465 1465 1465 1465 1464 1464 1464
1452 1452 1452 1452 1451 1451 1451 1452 1452 1452 1452 1453 1453 1453 1453 1453 1454 1455 1456 1456 1457 1457 1458 1458 1459 1459 1460 1460 1460 1461 1461 1461 1461 1461 1461 1460 1460 1460 1460 1460 1460 1459 1459
1449 1449 1449 1449 1449 1448 1449 1449 1449 1449 1450 1450 1450 1451 1451 1451 1452 1452 1453 1454 1454 1455 1455 1456 1456 1456 1456 1456 1456 1457 1457 1456 1456 1456 1456 1456 1456 1455 1455 1455 1455 1454 1453
1447 1446 1446 1446 1446 1446 1446 1446 1447 1447 1448 1448 1448 1448 1449 1449 1450 1450 1450 1451 1451 1452 1452 1452 1453 1452 1453 1453 1453 1452 1452 1452 1452 1452 1452 1451 1451 1451 1450 1450 1450 1449 1448
1444 1444 1444 1444 1444 1444 1444 1444 1445 1445 1446 1446 1446 1446 1446 1447 1447 1448 1448 1448 1448 1449 1449 1449 1449 1449 1448 1448 1448 1448 1448 1448 1448 1447 1447 1447 1447 1446 1446 1445 1445 1444 1444
1442 1442 1442 1442 1442 1442 1442 1443 1443 1444 1444 1444 1444 1444 1444 1444 1445 1445 1445 1445 1445 1445 1445 1445 1445 1444 1444 1444 1444 1444 1443 1443 1443 1443 1443 1442 1442 1442 1441 1441 1440 1439 1439
1440 1440 1440 1440 1440 1441 1441 1441 1441 1441 1441 1442 1442 1442 1442 1442 1442 1442 1442 1442 1442 1441 1441 1441 1440 1440 1440 1439 1439 1439 1439 1438 1438 1438 1438 1438 1437 1437 1437 1436 1435 1435 1434
1438 1438 1438 1438 1438 1439 1439 1439 1439 1439 1439 1439 1439 1439 1439 1439 1439 1439 1439 1438 1438 1437 1437 1436 1436 1435 1435 1435 1434 1434 1434 1433 1433 1433 1433 1433 1432 1432 1432 1431 1431 1430 1430
1436 1436 1436 1436 1436 1436 1437 1437 1437 1437 1437 1437 1437 1436 1436 1436 1435 1435 1435 1434 1434 1433 1433 1432 1431 1431 1430 1429 1429 1429 1428 1428 1428 1428 1427 1427 1427 1427 1427 1426 1426 1426 1425